Location: Elmsmere
(40.9284°N, 73.8207°W)
Time: 09:49:45
(UTC+00:00)

OAO 2 Rocket - Pass Details

Date: 29 October 2020
Orbit: 676 x 746 km, 35.0° (Epoch: 23 November)

Event Time Altitude Azimuth Distance (km) Brightness Sun altitude
Rises 23:38:37 0° 260° (W) 3,061 8.2 -20.2°
Reaches altitude 10° 23:41:08 10° 253° (WSW) 2,133 6.9 -20.7°
Maximum altitude 23:45:49 42° 184° (S) 971 4.0 -21.6°
Enters shadow 23:46:58 36° 150° (SSE) 1,073 4.0 -21.8°
